Weather History for Terre Haute, IN

Change the Weather History Date:

Thursday, February 13, 2014

  Actual Average Record
Temperature  
Mean Temperature 19 °F 32 °F  
Max Temperature 35 °F 40 °F 56 °F (1974)
Min Temperature 2 °F 23 °F -2 °F (1980)
Degree Days  
Heating Degree Days 46 33  
Month to date heating degree days 634 451  
Since 1 July heating degree days 4173 3701  
Cooling Degree Days 0 0  
Month to date cooling degree days 0 0  
Year to date cooling degree days 0 0  
Moisture  
Dew Point 10 °F    
Average Humidity 69    
Maximum Humidity 96    
Minimum Humidity 41    
Precipitation  
Precipitation 0.00 in 0.07 in 0.98 in (2007)
Month to date precipitation 1.56 0.95  
Year to date precipitation 3.33 3.31  
Sea Level Pressure  
Sea Level Pressure 29.86 in    
Wind  
Wind Speed 5 mph (SSW)    
Max Wind Speed 15 mph    
Max Gust Speed 17 mph    
Visibility 8 miles    
Events      
T = Trace of Precipitation, MM = Missing Value Source: NWS Daily Summary

Daily Weather History Graph

Daily Weather History Graph

Search for Another Location

Airport:

Trip Planner

Search our weather history database for the weather conditions in past years. The results will help you decide how hot, cold, wet, or windy it might be!

Date:

Astronomy

Feb. 13, 2014 Rise Set
Actual Time 7:43 AM EST 6:23 PM EST
Civil Twilight 7:16 AM EST 6:51 PM EST
Nautical Twilight 6:44 AM EST 7:22 PM EST
Astronomical Twilight 6:13 AM EST 7:54 PM EST
Moon 5:31 PM EST (2/13) 6:36 AM EST (2/13)
Length of Visible Light 11h 35m
Length of Day
10h 39m
Waxing Gibbous, 98% of the Moon is Illuminated
Feb 13
Waxing Gibbous
Feb 14
Full
Feb 22
Last Quarter
Mar 1
New
Mar 8
First Quarter

Hourly Weather History & Observations

Time (EST) Temp. Windchill Dew Point Humidity Pressure Visibility Wind Dir Wind Speed Gust Speed Precip Events Conditions
12:53 AM 8.1 °F - 3.9 °F 83% 30.03 in 9.0 mi Calm Calm - N/A   Clear
1:53 AM 3.9 °F -3.4 °F 1.9 °F 91% 30.04 in 7.0 mi NNW 3.5 mph - N/A   Clear
2:53 AM 5.0 °F -2.1 °F 1.9 °F 87% 30.03 in 7.0 mi NW 3.5 mph - N/A   Clear
3:53 AM 6.1 °F -4.3 °F 1.9 °F 83% 30.01 in 7.0 mi NNW 5.8 mph - N/A   Clear
4:53 AM 8.1 °F - 3.9 °F 83% 29.99 in 7.0 mi Calm Calm - N/A   Clear
5:53 AM 6.1 °F -0.9 °F 1.9 °F 83% 29.98 in 6.0 mi ESE 3.5 mph - N/A   Clear
6:53 AM 3.9 °F - -0.0 °F 84% 29.99 in 5.0 mi Calm Calm - N/A   Clear
7:53 AM 3.9 °F - 1.9 °F 91% 29.97 in 5.0 mi Calm Calm - N/A   Clear
8:53 AM 5.0 °F - 3.0 °F 92% 29.97 in 5.0 mi Calm Calm - N/A   Clear
9:53 AM 16.0 °F 7.4 °F 8.1 °F 71% 29.94 in 6.0 mi SE 5.8 mph - N/A   Haze
10:53 AM 21.9 °F - 10.9 °F 63% 29.92 in 10.0 mi Calm Calm - N/A   Clear
11:53 AM 26.1 °F 19.4 °F 12.0 °F 55% 29.91 in 10.0 mi SE 5.8 mph - N/A   Clear
12:53 PM 30.9 °F 25.2 °F 15.1 °F 52% 29.86 in 10.0 mi SE 5.8 mph - N/A   Clear
1:53 PM 34.0 °F 25.0 °F 12.0 °F 40% 29.85 in 10.0 mi SW 12.7 mph - N/A   Scattered Clouds
2:53 PM 34.0 °F 26.0 °F 15.1 °F 46% 29.79 in 10.0 mi South 10.4 mph - N/A   Overcast
3:53 PM 34.0 °F 25.0 °F 15.1 °F 46% 29.74 in 10.0 mi South 12.7 mph - N/A   Mostly Cloudy
4:53 PM 35.1 °F 26.9 °F 15.1 °F 44% 29.72 in 10.0 mi South 11.5 mph - N/A   Mostly Cloudy
5:53 PM 34.0 °F 27.2 °F 16.0 °F 48% 29.71 in 10.0 mi South 8.1 mph - N/A   Clear
6:53 PM 30.9 °F 24.3 °F 17.1 °F 57% 29.71 in 10.0 mi South 6.9 mph - N/A   Clear
7:53 PM 25.0 °F - 15.1 °F 66% 29.73 in 10.0 mi Calm Calm - N/A   Clear
8:53 PM 28.0 °F 21.7 °F 17.1 °F 63% 29.72 in 10.0 mi SW 5.8 mph - N/A   Clear
9:53 PM 30.0 °F 25.2 °F 18.0 °F 61% 29.70 in 10.0 mi SSW 4.6 mph - N/A   Clear
10:53 PM 28.0 °F 19.3 °F 18.0 °F 66% 29.70 in 10.0 mi WSW 9.2 mph - N/A   Clear
11:53 PM 30.0 °F 20.5 °F 21.0 °F 69% 29.69 in 10.0 mi WSW 11.5 mph - N/A   Clear